Regional Weather Roundup
Issued by NWS

Home | Current Version | Previous Version | Text Only | Print | Product List | Glossary On
Versions: 1 2 3 4 5 6 7 8 9 10 11 12 13 14 15 16 17 18 19 20 21 22 23 24 25 26 27 28 29 30 31 32 33 34 35 36 37 38 39 40 41 42 43 44 45 46 47 48 49 50
000
ASUS44 KEWX 301012
RWRTX
SOUTH TEXAS REGIONAL WEATHER ROUNDUP
NATIONAL WEATHER SERVICE AUSTIN/SAN ANTONIO TX
500 AM CDT THU MAR 30 2017

NOTE: "FAIR" INDICATED FEW OR NO CLOUDS BELOW 12,000 FEET WITH NO
SIGNIFICANT WEATHER AND/OR OBSTRUCTIONS TO VISIBILITY.

* - THESE STATIONS ARE NOT NWS OR FAA STATIONS...AND ARE NOT SUBJECT
    TO NWS AND FAA QUALITY CONTROL.

TXZ171-172-183>190-301100-
TEXAS HILL COUNTRY AND EDWARDS PLATEAU

CITY           SKY/WX    TMP DP  RH WIND       PRES   REMARKS
JUNCTION       PTCLDY    47  43  86 W3        29.99S
*LLANO         DRIZZLE   48  46  93 CALM      29.99S
BURNET         CLEAR     52  46  80 NW9       29.95F
*HORSESHOE BAY CLEAR     51  47  83 W5        29.95R
*KERRVILLE     CLEAR     51  46  81 NW9       29.96S
*FREDERICKSBRG CLEAR     48  42  78 NW7       29.96F WCI  45
*ROCKSPRINGS   PTCLDY    46  41  81 NW6       30.02F WCI  43
*BOERNE STAGE  CLEAR     52  41  66 NW8       29.95F
*CASTROVILLE   CLEAR     53  44  71 NW3       29.97F
HONDO          CLEAR     51  44  77 NW8       29.96F
*UVALDE        CLEAR     51  43  73 CALM      29.97F
DEL RIO        CLEAR     56  46  69 NW7       29.99F
LAUGHLIN AFB   PTCLDY    56  43  63 N13       29.98F
CARRIZO SPRGS  MOCLDY    57  41  54 NW6       29.98F
*EAGLE PASS    SUNNY     55  41  58 N8        29.98F
$$

TXZ173-191>194-202-209-217>225-228-301100-
CENTRAL AND SOUTH CENTRAL TEXAS

CITY           SKY/WX    TMP DP  RH WIND       PRES   REMARKS
GEORGETOWN     CLEAR     54  45  71 W7        29.92R
AUSTIN/BERGSTM PTCLDY    57  49  74 NW5       29.93R
AUSTIN/MABRY   CLEAR     56  49  77 CALM      29.94R
*AUSTIN/EXEC   CLEAR     55  48  76 W6        29.94R
*LAGO VISTA    CLEAR     53  48  84 W8        29.93S
SAN MARCOS     PTCLDY    54  46  76 NW9       29.94S
NEW BRAUNFELS  CLEAR     56  46  69 NW12      29.92S
RANDOLPH AFB   CLEAR     54  47  76 NW9       29.94S
PT SAN ANTONIO CLEAR     54  45  70 N7        29.92F
SAN ANTONIO    CLEAR     55  44  66 NW8       29.95S
STINSON FIELD  PTCLDY    59  44  57 NW7       29.93S
*PLEASANTON    PTCLDY    57  45  63 NW6       29.96R
*LA GRANGE     CLOUDY    59  52  77 NW8       29.90R
*GIDDINGS      CLOUDY    57  48  73 NW7       29.92S
*GONZALES      CLOUDY    58  50  77 NW7       29.92R
$$

TXZ163>164-176>182-195>201-210>213-226-227-235-301100-
SOUTHEAST TEXAS

CITY           SKY/WX    TMP DP  RH WIND       PRES   REMARKS
COLLEGE STN    CLOUDY    57  50  77 NW7       29.90R
*BRYAN         CLOUDY    55  50  82 W7        29.91S
*CALDWELL      NOT AVBL
*CROCKETT      CLOUDY    55  48  76 W3        29.89R
*BRENHAM       CLOUDY    60  52  74 NW10      29.91S
HUNTSVILLE     CLOUDY    59  49  69 NW7       29.87S
CONROE         CLOUDY    60  53  77 NW13G21   29.86R
HOUSTON BUSH   CLOUDY    63  55  75 NW10      29.86R
HOUSTON HOBBY  CLOUDY    65  53  65 NW13      29.85R
*HOUSTON SW AP CLOUDY    63  53  71 NW12G20   29.87R
PEARLAND       CLOUDY    67  54  63 NW10      29.86S
HOUSTON HOOKS  CLOUDY    63  54  72 NW10      29.87R
ELLINGTON FLD  MOCLDY    64  55  72 NW12      29.86S
SUGAR LAND     CLOUDY    64  54  69 NW12      29.87R
*HOUSTON EXEC  CLOUDY    63  54  72 NW12G18   29.89R
*CLEVELAND MUN CLOUDY    59  58  96 NW9       29.86R
*WHARTON       CLOUDY    62  51  66 N10G17    29.87F
*COLUMBUS      FAIR      61  49  65 NW13G23   29.90S
*EAGLE LAKE    CLOUDY    63  53  71 NW10G17   29.88F
$$

TXZ214>216-236>238-301100-
THE UPPER TEXAS COAST

CITY           SKY/WX    TMP DP  RH WIND       PRES   REMARKS
*ORANGE        MOCLDY    69  69 100 W5        29.81F FOG
PORT ARTHUR    MOCLDY    68  66  93 W8        29.79F FOG
GALVESTON      CLOUDY    68  62  81 NW15G22   29.82S
ANGLETON       MOCLDY    65  56  72 NW12      29.84S
*BAY CITY      CLOUDY    64  55  72 NW8       29.85R
PALACIOS       CLOUDY    63  52  67 N13       29.86S
$$

TXZ229>234-239>247-301100-
TEXAS COASTAL BEND AND RIO GRANDE PLAINS

CITY           SKY/WX    TMP DP  RH WIND       PRES   REMARKS
VICTORIA       CLOUDY    61  52  72 NW10      29.89F
*BEEVILLE      CLOUDY    64  50  59 NW12G18   29.91S
ROCKPORT       PTCLDY    66  51  58 N18       29.87F
*PORT ARANSAS  CLOUDY    67  52  58 N22       29.87S
*PORT LAVACA   CLOUDY    62  57  85 CALM      29.88F
*INGLESIDE     PTCLDY    64  55  70 N12       29.88R
CORPUS CHRISTI PTCLDY    65  51  60 N15       29.88S
CORPUS NAS     CLEAR     70  54  56 N21       29.87S
*ROBSTOWN      PTCLDY    65  51  59 CALM      29.90S
ALICE          CLOUDY    66  48  52 NW9       29.90R
KINGSVILLE NAS PTCLDY    65  52  62 N10       29.89S
COTULLA        MOCLDY    59  43  55 NW8       29.98S
*FAITH RANCH   PTCLDY    59  41  51 N7        29.99F
LAREDO         MOCLDY    65  41  41 NW16G25   29.97S
$$

TXZ248>255-301100-
DEEP SOUTH TEXAS

CITY           SKY/WX    TMP DP  RH WIND       PRES   REMARKS
BROWNSVILLE    CLOUDY    73  72  96 N9        29.82S
PORT ISABEL    MOCLDY    73  72  96 N7        29.81F FOG
*SOUTH PADRE   NOT AVBL
HARLINGEN      CLOUDY    67  67 100 NW5       29.83S FOG
*HEBBRONVILLE  CLOUDY    65  44  46 N16G22    29.93S
MCALLEN        CLOUDY    70  57  63 NW7       29.87R
*WESLACO       MOCLDY    65  58  78 N12       29.85R
FALFURRIAS     CLOUDY    65  48  55 NW6       29.91R
EDINBURG       MOCLDY    66  49  54 N14       29.86S
*ZAPATA        MOCLDY    69  39  34 NW15G23   29.94S
$$

TXZ213>215-236>238-242>244-246-247-251-254-255-301100-
CMAN STATIONS

STATION/POSITION TIME  TEMP    WIND        PRES    WAVE
                       AIR SEA DIR/SP/G            HT/PER
                 (UTC) (F)     (DEG/KT/KT) (MB)    (FT/S)
SABINE PASS      0948   70 76  240/  2/  6 1010.1
SEA RIM ST PARK  1000   70     250/  7/  8 1008.9
NORTH JETTY/GLS  0948          300/ 14/ 18   N/A
EAGLE POINT      0948   67 74  350/  9/ 15 1010.1
MORGANS POINT    0948   66 74  300/ 13/ 15 1010.2
MISSION/ARANSAS  0900   69                 1012.0
PORT O`CONNOR    0948   69     330/ 20/ 24 1010.8
PORT ARANSAS     1000   68 73  340/ 18/ 21 1011.4
MALAQUITE BEACH  0948   70 74  330/ 18/ 22 1011.9
BAFFIN BAY       0948   67 76  310/ 15/ 17 1011.4
PORT ISABEL      0948   75 78  360/ 10/ 14 1009.3
$$

GMZ080-GMZ150>470-301100-
OFFSHORE BUOY REPORTS

STATION/POSITION TIME  TEMP    WIND        PRES    WAVE
                       AIR SEA DIR/SP/G            HT/PER
                 (UTC) (F)     (DEG/KT/KT) (MB)    (FT/S)
20 E GALVESTON   0950   71 72  260/ 12/ 16 1008.3    5/ 9
90 E PT ARANSAS  0950   73 73  280/ 12/ 16 1008.1    5/ 8
35 NE PT MANSFLD 0950   73     270/  4/  6 1008.6    7/ 8
200 E PT ISABEL  0950   76 77  140/  8/  8 1009.0    6/ 8
$$



USA.gov is the U.S. government's official web portal to all federal, state and local government web resources and services.